Schneifelwetter: Wetterstation Hallschlag, 537 m . NN
Wetterdaten: Sonntag, 05.11.2006
Datum Zeit Temp. A. Temp. 2 Feuchte A. Luftdruck Regen Wind Richtung Richtung Sonnenschein Helligkeit T Regen Taupunkt Windchill
05.11.2006 00:00 4,0 C 3,7 C 90 % 1028 hPa 0,0 l/m 12,7 km/h (3 Bft) W22.5 270 0 min 0 lux 0,00 min 2,5 C -0,8 C
05.11.2006 00:15 4,1 C 3,8 C 90 % 1028 hPa 0,0 l/m 17,0 km/h (3 Bft) W22.5 260 0 min 0 lux 0,00 min 2,6 C -3,0 C
05.11.2006 00:30 4,1 C 3,9 C 90 % 1028 hPa 0,0 l/m 16,1 km/h (3 Bft) W45 275 0 min 0 lux 0,00 min 2,6 C -2,6 C
05.11.2006 00:45 4,2 C 4,0 C 90 % 1028 hPa 0,0 l/m 18,0 km/h (3 Bft) W22.5 265 0 min 0 lux 0,00 min 2,7 C -3,4 C
05.11.2006 01:00 4,2 C 4,0 C 90 % 1028 hPa 0,0 l/m 17,8 km/h (3 Bft) W45 270 0 min 0 lux 0,00 min 2,7 C -3,3 C
05.11.2006 01:15 4,2 C 4,0 C 90 % 1028 hPa 0,0 l/m 18,5 km/h (3 Bft) W22.5 260 0 min 0 lux 0,00 min 2,7 C -3,6 C
05.11.2006 01:30 4,2 C 4,0 C 91 % 1028 hPa 0,0 l/m 16,8 km/h (3 Bft) W45 265 0 min 0 lux 0,00 min 2,9 C -2,8 C
05.11.2006 01:45 4,2 C 4,0 C 91 % 1028 hPa 0,0 l/m 17,3 km/h (3 Bft) W45 260 0 min 0 lux 0,00 min 2,9 C -3,0 C
05.11.2006 02:00 4,3 C 4,1 C 91 % 1028 hPa 0,0 l/m 19,5 km/h (3 Bft) W22.5 260 0 min 0 lux 0,00 min 3,0 C -3,9 C
05.11.2006 02:15 4,3 C 4,1 C 91 % 1028 hPa 0,0 l/m 21,6 km/h (4 Bft) W22.5 260 0 min 0 lux 0,00 min 3,0 C -4,7 C
05.11.2006 02:30 4,3 C 4,1 C 91 % 1028 hPa 0,0 l/m 16,3 km/h (3 Bft) W22.5 260 0 min 0 lux 0,00 min 3,0 C -2,4 C
05.11.2006 02:45 4,4 C 4,2 C 92 % 1028 hPa 0,0 l/m 19,8 km/h (3 Bft) W22.5 260 0 min 0 lux 0,00 min 3,2 C -3,9 C
05.11.2006 03:00 4,4 C 4,3 C 92 % 1028 hPa 0,0 l/m 15,6 km/h (3 Bft) W-SW22.5 255 0 min 0 lux 0,00 min 3,2 C -2,0 C
05.11.2006 03:15 4,5 C 4,3 C 92 % 1028 hPa 0,0 l/m 15,6 km/h (3 Bft) W22.5 260 0 min 0 lux 0,00 min 3,3 C -1,8 C
05.11.2006 03:30 4,5 C 4,3 C 92 % 1028 hPa 0,0 l/m 14,5 km/h (3 Bft) W22.5 260 0 min 0 lux 0,00 min 3,3 C -1,3 C
05.11.2006 03:45 4,5 C 4,4 C 92 % 1028 hPa 0,0 l/m 11,3 km/h (2 Bft) W22.5 260 0 min 0 lux 0,00 min 3,3 C 0,6 C
05.11.2006 04:00 4,5 C 4,4 C 92 % 1027 hPa 0,0 l/m 13,1 km/h (3 Bft) W-SW45 250 0 min 0 lux 0,00 min 3,3 C -0,5 C
05.11.2006 04:15 4,6 C 4,5 C 92 % 1027 hPa 0,0 l/m 15,0 km/h (3 Bft) W-SW22.5 255 0 min 0 lux 0,00 min 3,4 C -1,4 C
05.11.2006 04:30 4,7 C 4,6 C 93 % 1027 hPa 0,0 l/m 8,9 km/h (2 Bft) W22.5 270 0 min 0 lux 0,00 min 3,7 C 2,6 C
05.11.2006 04:45 4,7 C 4,6 C 93 % 1027 hPa 0,0 l/m 11,2 km/h (2 Bft) W-SW22.5 255 0 min 0 lux 0,00 min 3,7 C 0,9 C
05.11.2006 05:00 5,1 C 4,8 C 93 % 1027 hPa 0,0 l/m 18,4 km/h (3 Bft) W22.5 280 0 min 0 lux 0,00 min 4,1 C -2,4 C
05.11.2006 05:15 5,2 C 5,0 C 93 % 1027 hPa 0,0 l/m 16,9 km/h (3 Bft) W22.5 270 0 min 0 lux 0,00 min 4,2 C -1,6 C
05.11.2006 05:30 5,3 C 5,2 C 93 % 1027 hPa 0,0 l/m 21,2 km/h (4 Bft) W45 275 0 min 0 lux 0,00 min 4,3 C -3,2 C
05.11.2006 05:45 5,4 C 5,2 C 93 % 1027 hPa 0,0 l/m 19,2 km/h (3 Bft) W45 270 0 min 0 lux 0,00 min 4,4 C -2,3 C
05.11.2006 06:00 5,4 C 5,2 C 92 % 1027 hPa 0,0 l/m 17,7 km/h (3 Bft) W22.5 265 0 min 0 lux 0,00 min 4,2 C -1,7 C
05.11.2006 06:15 5,4 C 5,2 C 92 % 1027 hPa 0,0 l/m 16,1 km/h (3 Bft) W22.5 280 0 min 0 lux 0,00 min 4,2 C -1,0 C
05.11.2006 06:30 5,4 C 5,3 C 92 % 1027 hPa 0,0 l/m 22,1 km/h (4 Bft) W22.5 275 0 min 0 lux 0,00 min 4,2 C -3,4 C
05.11.2006 06:45 5,5 C 5,3 C 92 % 1027 hPa 0,0 l/m 19,3 km/h (3 Bft) W45 275 0 min 0 lux 0,00 min 4,3 C -2,2 C
05.11.2006 07:00 5,6 C 5,4 C 92 % 1027 hPa 0,0 l/m 20,8 km/h (4 Bft) W22.5 275 0 min 0 lux 0,00 min 4,4 C -2,7 C
05.11.2006 07:15 5,6 C 5,4 C 92 % 1027 hPa 0,0 l/m 24,0 km/h (4 Bft) W22.5 265 0 min 0 lux 0,00 min 4,4 C -3,8 C
05.11.2006 07:30 5,6 C 5,4 C 92 % 1027 hPa 0,0 l/m 29,4 km/h (5 Bft) W45 270 0 min 65 lux 0,00 min 4,4 C -5,4 C
05.11.2006 07:45 5,6 C 5,4 C 92 % 1027 hPa 0,0 l/m 22,4 km/h (4 Bft) W45 270 0 min 114 lux 0,00 min 4,4 C -3,3 C
05.11.2006 08:00 5,6 C 5,4 C 92 % 1027 hPa 0,0 l/m 29,7 km/h (5 Bft) W45 270 0 min 289 lux 0,00 min 4,4 C -5,5 C
05.11.2006 08:15 5,6 C 5,5 C 92 % 1027 hPa 0,0 l/m 28,9 km/h (5 Bft) W22.5 260 0 min 531 lux 0,00 min 4,4 C -5,2 C
05.11.2006 08:30 5,7 C 5,5 C 92 % 1027 hPa 0,0 l/m 27,8 km/h (4 Bft) W22.5 260 0 min 736 lux 0,00 min 4,5 C -4,8 C
05.11.2006 08:45 5,8 C 5,6 C 92 % 1027 hPa 0,0 l/m 25,3 km/h (4 Bft) W45 260 0 min 1,21 klux 0,00 min 4,6 C -4,0 C
05.11.2006 09:00 5,8 C 5,6 C 92 % 1027 hPa 0,0 l/m 24,3 km/h (4 Bft) W22.5 260 0 min 1,59 klux 0,00 min 4,6 C -3,6 C
05.11.2006 09:15 6,0 C 5,7 C 92 % 1027 hPa 0,0 l/m 22,0 km/h (4 Bft) W-SW22.5 255 0 min 2,07 klux 0,00 min 4,8 C -2,6 C
05.11.2006 09:30 6,1 C 5,9 C 92 % 1027 hPa 0,0 l/m 30,3 km/h (5 Bft) W22.5 260 0 min 3,87 klux 0,00 min 4,9 C -4,9 C
05.11.2006 09:45 6,2 C 6,0 C 91 % 1027 hPa 0,0 l/m 25,0 km/h (4 Bft) W22.5 265 0 min 2,79 klux 0,00 min 4,8 C -3,3 C
05.11.2006 10:00 6,4 C 6,1 C 91 % 1027 hPa 0,0 l/m 27,1 km/h (4 Bft) W45 270 0 min 2,37 klux 0,00 min 5,0 C -3,7 C
05.11.2006 10:15 6,4 C 6,1 C 91 % 1027 hPa 0,0 l/m 24,5 km/h (4 Bft) W22.5 270 0 min 1,99 klux 0,00 min 5,0 C -2,9 C
05.11.2006 10:30 6,4 C 6,2 C 91 % 1027 hPa 0,0 l/m 32,2 km/h (5 Bft) W45 260 0 min 6,68 klux 0,00 min 5,0 C -4,9 C
05.11.2006 10:45 6,5 C 6,2 C 91 % 1027 hPa 0,0 l/m 38,4 km/h (5 Bft) W45 260 0 min 5,96 klux 0,00 min 5,1 C -6,0 C
05.11.2006 11:00 6,4 C 6,1 C 91 % 1027 hPa 0,0 l/m 33,4 km/h (5 Bft) W45 265 0 min 3,69 klux 0,00 min 5,0 C -5,2 C
05.11.2006 11:15 6,8 C 6,5 C 91 % 1027 hPa 0,0 l/m 31,3 km/h (5 Bft) W22.5 260 0 min 11,0 klux 0,00 min 5,4 C -4,2 C
05.11.2006 11:30 7,0 C 6,6 C 90 % 1027 hPa 0,0 l/m 23,4 km/h (4 Bft) W-SW22.5 255 0 min 5,32 klux 0,00 min 5,5 C -1,7 C
05.11.2006 11:45 7,1 C 6,7 C 88 % 1027 hPa 0,0 l/m 41,1 km/h (6 Bft) W67.5 270 0 min 5,72 klux 0,00 min 5,2 C -5,6 C
05.11.2006 12:01 7,0 C 6,7 C 88 % 1027 hPa 0,0 l/m 34,4 km/h (5 Bft) W45 270 0 min 7,96 klux 0,00 min 5,2 C -4,5 C
05.11.2006 12:16 7,3 C 7,0 C 88 % 1027 hPa 0,0 l/m 21,1 km/h (4 Bft) W22.5 270 0 min 12,1 klux 0,00 min 5,4 C -0,6 C
05.11.2006 12:30 7,4 C 7,2 C 87 % 1027 hPa 0,0 l/m 29,4 km/h (5 Bft) W22.5 265 0 min 9,4 klux 0,00 min 5,4 C -2,9 C
05.11.2006 12:45 7,6 C 7,2 C 87 % 1027 hPa 0,0 l/m 26,6 km/h (4 Bft) W22.5 265 0 min 12,0 klux 0,00 min 5,6 C -1,9 C
05.11.2006 13:00 7,5 C 7,2 C 86 % 1027 hPa 0,0 l/m 28,3 km/h (4 Bft) W45 270 0 min 7,08 klux 0,00 min 5,3 C -2,4 C
05.11.2006 13:15 7,4 C 7,2 C 86 % 1026 hPa 0,0 l/m 24,5 km/h (4 Bft) W45 265 0 min 6,44 klux 0,00 min 5,2 C -1,5 C
05.11.2006 13:30 7,5 C 7,3 C 87 % 1026 hPa 0,0 l/m 22,7 km/h (4 Bft) W67.5 275 0 min 8,56 klux 0,00 min 5,5 C -0,9 C
05.11.2006 13:45 7,5 C 7,2 C 86 % 1026 hPa 0,0 l/m 21,1 km/h (4 Bft) W22.5 270 0 min 5,58 klux 0,00 min 5,3 C -0,3 C
05.11.2006 14:00 7,5 C 7,3 C 87 % 1026 hPa 0,0 l/m 21,2 km/h (4 Bft) W45 275 0 min 6,06 klux 0,00 min 5,5 C -0,4 C
05.11.2006 14:15 7,8 C 7,5 C 86 % 1026 hPa 0,0 l/m 25,5 km/h (4 Bft) W45 270 0 min 8,70 klux 0,00 min 5,6 C -1,3 C
05.11.2006 14:30 7,9 C 7,6 C 85 % 1026 hPa 0,0 l/m 27,8 km/h (4 Bft) W45 275 0 min 9,0 klux 0,00 min 5,5 C -1,8 C
05.11.2006 14:45 7,7 C 7,5 C 85 % 1026 hPa 0,0 l/m 35,3 km/h (5 Bft) W-NW45 285 0 min 5,62 klux 0,00 min 5,3 C -3,7 C
05.11.2006 15:00 7,5 C 7,4 C 85 % 1026 hPa 0,0 l/m 35,6 km/h (5 Bft) W22.5 270 0 min 6,02 klux 0,00 min 5,1 C -4,0 C
05.11.2006 15:15 7,6 C 7,4 C 85 % 1026 hPa 0,0 l/m 29,5 km/h (5 Bft) W45 270 0 min 5,48 klux 0,00 min 5,2 C -2,6 C
05.11.2006 15:30 7,6 C 7,3 C 85 % 1026 hPa 0,0 l/m 27,6 km/h (4 Bft) W45 275 0 min 3,77 klux 0,00 min 5,2 C -2,1 C
05.11.2006 15:45 7,5 C 7,2 C 86 % 1026 hPa 0,0 l/m 26,6 km/h (4 Bft) W22.5 280 0 min 3,31 klux 0,00 min 5,3 C -2,0 C
05.11.2006 16:00 7,4 C 7,1 C 86 % 1026 hPa 0,0 l/m 21,7 km/h (4 Bft) W45 275 0 min 2,15 klux 0,00 min 5,2 C -0,7 C
05.11.2006 16:15 7,3 C 7,0 C 85 % 1026 hPa 0,0 l/m 27,5 km/h (4 Bft) W67.5 270 0 min 1,64 klux 0,00 min 4,9 C -2,5 C
05.11.2006 16:31 7,2 C 7,0 C 86 % 1026 hPa 0,0 l/m 30,7 km/h (5 Bft) W22.5 270 0 min 970 lux 0,00 min 5,0 C -3,4 C
05.11.2006 16:46 7,2 C 6,9 C 86 % 1026 hPa 0,0 l/m 29,2 km/h (5 Bft) W45 275 0 min 632 lux 0,00 min 5,0 C -3,1 C
05.11.2006 17:00 7,2 C 6,8 C 86 % 1026 hPa 0,0 l/m 24,3 km/h (4 Bft) W22.5 270 0 min 699 lux 0,00 min 5,0 C -1,8 C
05.11.2006 17:15 7,2 C 6,7 C 85 % 1026 hPa 0,0 l/m 31,3 km/h (5 Bft) W45 275 0 min 173 lux 0,00 min 4,9 C -3,6 C
05.11.2006 17:30 7,0 C 6,7 C 85 % 1026 hPa 0,0 l/m 24,7 km/h (4 Bft) W45 270 0 min 56 lux 0,00 min 4,7 C -2,1 C
05.11.2006 17:45 7,0 C 6,7 C 85 % 1026 hPa 0,0 l/m 21,2 km/h (4 Bft) W22.5 270 0 min 7 lux 0,00 min 4,7 C -1,0 C
05.11.2006 18:00 7,0 C 6,7 C 85 % 1026 hPa 0,0 l/m 24,6 km/h (4 Bft) W22.5 270 0 min 0 lux 0,00 min 4,7 C -2,1 C
05.11.2006 18:15 6,9 C 6,7 C 86 % 1026 hPa 0,0 l/m 25,6 km/h (4 Bft) W22.5 270 0 min 0 lux 0,00 min 4,7 C -2,5 C
05.11.2006 18:30 6,8 C 6,6 C 87 % 1026 hPa 0,0 l/m 18,6 km/h (3 Bft) W22.5 275 0 min 0 lux 0,00 min 4,8 C -0,3 C
05.11.2006 18:45 6,8 C 6,6 C 87 % 1026 hPa 0,0 l/m 17,8 km/h (3 Bft) W22.5 270 0 min 0 lux 0,00 min 4,8 C 0,0 C
05.11.2006 19:00 6,8 C 6,4 C 87 % 1026 hPa 0,0 l/m 13,1 km/h (3 Bft) W22.5 260 0 min 0 lux 0,00 min 4,8 C 2,2 C
05.11.2006 19:15 6,7 C 6,3 C 87 % 1026 hPa 0,0 l/m 14,8 km/h (3 Bft) W22.5 260 0 min 0 lux 0,00 min 4,7 C 1,2 C
05.11.2006 19:30 6,7 C 6,3 C 87 % 1026 hPa 0,0 l/m 18,4 km/h (3 Bft) W22.5 270 0 min 0 lux 0,00 min 4,7 C -0,4 C
05.11.2006 19:45 6,7 C 6,4 C 87 % 1026 hPa 0,0 l/m 10,4 km/h (2 Bft) W22.5 260 0 min 0 lux 0,00 min 4,7 C 3,7 C
05.11.2006 20:00 6,7 C 6,4 C 88 % 1026 hPa 0,0 l/m 19,3 km/h (3 Bft) W45 270 0 min 0 lux 0,00 min 4,9 C -0,7 C
05.11.2006 20:15 6,7 C 6,5 C 88 % 1026 hPa 0,0 l/m 18,1 km/h (3 Bft) W45 270 0 min 0 lux 0,00 min 4,9 C -0,2 C
05.11.2006 20:30 6,7 C 6,4 C 88 % 1026 hPa 0,0 l/m 17,3 km/h (3 Bft) W45 265 0 min 0 lux 0,00 min 4,9 C 0,1 C
05.11.2006 20:45 6,8 C 6,5 C 88 % 1026 hPa 0,0 l/m 15,7 km/h (3 Bft) W45 275 0 min 0 lux 0,00 min 5,0 C 0,9 C
05.11.2006 21:00 6,7 C 6,5 C 88 % 1026 hPa 0,0 l/m 15,8 km/h (3 Bft) W45 270 0 min 0 lux 0,00 min 4,9 C 0,8 C
05.11.2006 21:15 6,8 C 6,5 C 88 % 1026 hPa 0,0 l/m 15,5 km/h (3 Bft) W45 280 0 min 0 lux 0,00 min 5,0 C 1,0 C
05.11.2006 21:30 6,8 C 6,5 C 88 % 1027 hPa 0,0 l/m 13,8 km/h (3 Bft) W45 280 0 min 0 lux 0,00 min 5,0 C 1,9 C
05.11.2006 21:45 6,8 C 6,5 C 87 % 1027 hPa 0,0 l/m 13,6 km/h (3 Bft) W-NW22.5 285 0 min 0 lux 0,00 min 4,8 C 2,0 C
05.11.2006 22:00 6,8 C 6,5 C 87 % 1027 hPa 0,0 l/m 22,8 km/h (4 Bft) W-NW22.5 285 0 min 0 lux 0,00 min 4,8 C -1,8 C
05.11.2006 22:15 6,9 C 6,5 C 87 % 1027 hPa 0,0 l/m 18,0 km/h (3 Bft) W45 270 0 min 0 lux 0,00 min 4,9 C 0,1 C
05.11.2006 22:30 6,7 C 6,3 C 87 % 1026 hPa 0,0 l/m 16,6 km/h (3 Bft) W22.5 265 0 min 0 lux 0,00 min 4,7 C 0,4 C
05.11.2006 22:45 6,6 C 6,2 C 87 % 1026 hPa 0,0 l/m 10,4 km/h (2 Bft) W45 265 0 min 0 lux 0,00 min 4,6 C 3,6 C
05.11.2006 22:54 6,5 C 6,2 C 87 % 1026 hPa 0,0 l/m 10,9 km/h (2 Bft) W22.5 265 0 min 0 lux 0,00 min 4,5 C 3,1 C
05.11.2006 23:09 6,5 C 6,2 C 88 % 1026 hPa 0,0 l/m 18,8 km/h (3 Bft) W22.5 260 0 min 0 lux 0,00 min 4,7 C -0,8 C
05.11.2006 23:24 6,5 C 6,2 C 88 % 1026 hPa 0,0 l/m 12,2 km/h (2 Bft) W22.5 270 0 min 0 lux 0,00 min 4,7 C 2,4 C
05.11.2006 23:39 6,5 C 6,2 C 88 % 1026 hPa 0,0 l/m 10,3 km/h (2 Bft) W22.5 265 0 min 0 lux 0,00 min 4,7 C 3,5 C
05.11.2006 23:54 6,4 C 6,2 C 88 % 1027 hPa 0,0 l/m 8,9 km/h (2 Bft) W-SW45 255 0 min 0 lux 0,00 min 4,6 C 4,4 C
_ Min-Zeit 00:00 00:00 14:30 13:15 - 04:30 - - - - - 00:00 10:45
Minimum _ 4,0 C 3,7 C 85 % 1026 hPa - 8,9 km/h (2 Bft) - - - - - 2,5 C -6,0 C
_ Max-Zeit 14:30 14:30 04:30 00:00 00:00 11:45 - - 00:00 12:16 00:00 14:15 23:54
Maximum _ 7,9 C 7,6 C 93 % 1028 hPa 0,0 l/m 41,1 km/h
W (6 Bft)
- - 0 min 12,1 klux 0,00 min 5,6 C 4,4 C
Durchschnitt _ 6,2 C 5,9 C 89 % 1027 hPa #0,0 l/m 21,4 km/h (4 Bft) W - #0 min. 1,85 klux #0 min. 4,5 C -1,8 C